Regional Weather Roundup
Issued by NWS

Home | Current Version | Previous Version | Text Only | Print | Product List | Glossary On
Versions: 1 2 3 4 5 6 7 8 9 10 11 12 13 14 15 16 17 18 19 20 21 22 23 24 25 26 27 28 29 30 31 32 33 34 35 36 37 38 39 40 41 42 43 44 45 46 47 48 49 50
000
ASUS43 KIND 050709
RWRIN

WEATHER ROUNDUP FOR INDIANA
NATIONAL WEATHER SERVICE INDIANAPOLIS IN
300 AM EDT SUN JUL 05 2015

NOTE: "FAIR" INDICATES FEW OR NO CLOUDS BELOW 12,000 FEET WITH NO
SIGNIFICANT WEATHER AND/OR OBSTRUCTIONS TO VISIBILITY.

* - STATION DOES NOT REPORT WEATHER SUCH AS PRECIPITATION OR FOG.

+ - STATION NOT QUALITY CONTROLLED BY THE NATIONAL WEATHER SERVICE.
    USE DATA WITH CAUTION...ESPECIALLY DEWPOINT AND RELATIVE
    HUMIDITY OBSERVATIONS.

INZ001>003-010>013-019-020-050800-
NORTHWEST INDIANA

CITY           SKY/WX    TMP DP  RH WIND       PRES   REMARKS
GARY /AIRPORT/ FOG      N/A N/A N/A CALM      30.05S VSB 3/4
KNOX *+        CLEAR     61  61 100 CALM      30.06R
LA PORTE +     CLEAR     61  61 100 CALM      30.07R FOG
MICHIGAN CITY+ FOG       59  59 100 CALM      30.06R VSB 1
MONTICELLO +   FOG       63  63 100 CALM      30.06S VSB 1
RENSSELAER +   CLEAR     63  63 100 CALM      30.07R FOG
VALPARAISO     CLEAR     63  60  90 CALM      30.06S

$$

LMZ046-743>745-050800-
SOUTHERN LAKE MICHIGAN

STATION/POSITION TIME  TEMP    WIND        PRES    WAVE
                       AIR SEA DIR/SP/G            HT
                 (UTC) (F)     (DEG/KT/KT) (MB)    (FT)
BURNS HARBOR     0700   68     180/  4/  6 1017.9S
MICHIGAN CITY    0700   69     140/  9/ 13   N/A
5NW MICH CITY    0700   66 64  170/  4/  4   N/A     0

$$

INZ004-005-014>016-021>024-050800-
NORTH CENTRAL INDIANA

CITY           SKY/WX    TMP DP  RH WIND       PRES   REMARKS
GOSHEN         FOG       59  57  93 CALM      30.06S VSB 1
LOGANSPORT +   CLEAR     59  55  88 CALM      30.07F FOG
PERU/GRISSOM   CLEAR     62  60  94 SE2       30.06S
ROCHESTER +    CLEAR     66  66 100 CALM      30.07S
SOUTH BEND     CLEAR     61  57  87 CALM      30.07R FOG
WARSAW +         N/A     59  59 100 CALM      30.07S FOG

$$

INZ006>009-017-018-025>027-050800-
NORTHEAST INDIANA

CITY           SKY/WX    TMP DP  RH WIND       PRES   REMARKS
ANGOLA *+        N/A     59  57  94 CALM      30.08R
AUBURN +       CLEAR     59  55  88 CALM      30.08S FOG
FORT WAYNE     PTCLDY    62  59  90 CALM      30.08S
HUNTINGTON +   CLEAR     62  60  95 CALM      30.07F

$$

INZ028-029-035-036-043>045-051>053-050800-
WEST CENTRAL INDIANA

CITY           SKY/WX    TMP DP  RH WIND       PRES   REMARKS
CRAWFORDSVL +  CLEAR     58  57  97 CALM      30.06S FOG
GREENCASTLE +  PTCLDY    63  55  77 CALM      30.07R
LAFAYETTE      CLEAR     61  59  93 CALM      30.06R FOG
TERRE HAUTE    PTCLDY    64  62  93 NE3       30.04F FOG

$$

INZ030>032-037>040-046>048-054>057-064-065-050800-
CENTRAL INDIANA

CITY           SKY/WX    TMP DP  RH WIND       PRES   REMARKS
CP ATTERBURY + MOCLDY    63  61  94 CALM      30.06S FOG
FRANKFORT +    CLEAR    N/A N/A N/A CALM      30.09R
GREENWOOD *+   MOCLDY    66  59  77 CALM      30.07S
INDIANAPOLIS   PTCLDY    68  59  73 NE6       30.05S HAZE
-EAGLE CREEK   PTCLDY    65  61  87 CALM      30.06S FOG
KOKOMO *+      CLEAR     63  59  88 CALM      30.07S
MARION +       CLEAR     61  60  96 CALM      30.08F FOG
MT COMFORT *+  MOCLDY    61 N/A N/A CALM      30.07S
SHELBYVILLE    MOCLDY    64  61  90 N3        30.05S FOG
ZIONSVILLE +   PTCLDY    62  58  89 CALM      30.08S FOG

$$

INZ033-034-041-042-049-050-058-059-050800-
EAST CENTRAL INDIANA

CITY           SKY/WX    TMP DP  RH WIND       PRES   REMARKS
MUNCIE         PTCLDY    63  60  90 CALM      30.07F

$$

INZ060-061-067>069-081>083-085>088-050800-
SOUTHWEST INDIANA

CITY           SKY/WX    TMP DP  RH WIND       PRES   REMARKS
EVANSVILLE     CLOUDY    72  68  87 N5        30.02S SMOKE
HUNTINGBURG *+ CLOUDY    70  66  88 CALM      30.03S
WASHINGTON +   MOCLDY    66  63  87 CALM      30.03S FOG

$$

INZ062-063-066-070>080-084-089>092-050800-
SOUTH CENTRAL AND SOUTHEAST INDIANA

CITY           SKY/WX    TMP DP  RH WIND       PRES   REMARKS
BLOOMINGTON    MOCLDY    64  63  96 CALM      30.05S FOG
MADISON *+     CLOUDY    70  63  78 CALM      30.06F
NORTH VERNON + CLOUDY    66  66 100 CALM      30.06S FOG
SEYMOUR +      CLOUDY    70  66  88 CALM      30.04S

$$




USA.gov is the U.S. government's official web portal to all federal, state and local government web resources and services.